Regional Weather Roundup
Issued by NWS

Home | Current Version | Previous Version | Text Only | Print | Product List | Glossary On
Versions: 1 2 3 4 5 6 7 8 9 10 11 12 13 14 15 16 17 18 19 20 21 22 23 24 25 26 27 28 29 30 31 32 33 34 35 36 37 38 39 40 41 42 43 44 45 46 47 48 49 50
000
ASUS43 KDTX 031110
RWRMI
MICHIGAN HOURLY REGIONAL WEATHER ROUNDUP
NATIONAL WEATHER SERVICE DETROIT/PONTIAC MI
700 AM EDT WED JUN 03 2015

NOTE: "FAIR" INDICATES FEW OR NO CLOUDS BELOW 12,000 FEET WITH NO
SIGNIFICANT WEATHER AND/OR OBSTRUCTION TO VISIBILITY.

MIZ047>049-052>055-059>063-066>070-074>076-081>083-031200-
SOUTHEAST LOWER MICHIGAN

CITY           SKY/WX    TMP DP  RH WIND       PRES   REMARKS
ADRIAN         MOCLDY    51  47  86 N5        30.14R
ALMA           CLEAR     45  45  99 CALM      30.15S FOG
ANN ARBOR      CLEAR     49  46  90 NE5       30.14R
BAD AXE        SUNNY     46  41  85 CALM      30.18R
CARO           CLEAR     42  41  98 CALM      30.16R
DETROIT CITY   CLEAR     52  48  86 E6        30.15R
DETROIT        PTCLDY    52  47  83 N3        30.14S
FLINT          CLEAR     49  46  90 E5        30.16S
GROSSE ILE     CLEAR     54  48  82 NE5       30.13R
HILLSDALE      CLEAR     52  50  92 E5        30.12S
HOWELL         CLEAR     46  45  97 CALM      30.14S

CITY           SKY/WX    TMP DP  RH WIND       PRES   REMARKS
JACKSON        CLEAR     47  44  90 CALM      30.13S
LAMBERTVILLE   CLEAR     50  46  87 CALM      30.13R
LANSING        CLEAR     48  45  89 CALM      30.15R
LAPEER         FAIR      44  43  96 CALM      30.16S
MASON          CLEAR     47  45  90 E3        30.13S
MONROE         CLEAR     52  46  82 CALM      30.12R
MT. CLEMENS    CLEAR     52  47  82 E7        30.13
PONTIAC        PTCLDY    51  46  83 E3        30.15R
PORT HOPE        N/A     53  42  66 S8        30.16R
PORT HURON     SUNNY     48  46  93 NE5       30.16F
TRI CITIES     CLEAR     52  47  83 CALM      30.17R
MIDLAND        FAIR      43  42  97 CALM      30.16R
TROY           CLEAR     53  47  79 NE5       30.16S
SAGINAW HB     CLEAR     46  46 100 CALM      30.16R
$$
MIZ043>046-050>051-056>058-064>065-071>073-077>080-031200-
SOUTHWEST LOWER MICHIGAN

CITY           SKY/WX    TMP DP  RH WIND       PRES   REMARKS
BATTLE CREEK   CLEAR     50  44  80 E5        30.13R
BENTON HARBOR  CLEAR     44  42  93 CALM      30.10R
BIG RAPIDS     CLEAR     46  43  88 CALM      30.14R
COLDWATER      CLEAR     46  45  97 E5        30.12R
FREMONT        FAIR      51  46  83 SE3       30.12R
HOLLAND        PTCLDY    50  44  80 E3        30.12S
GRAND RAPIDS   MOCLDY    48  46  93 NE3       30.13S
IONIA          FAIR      48  46  93 CALM      30.13S
KALAMAZOO      CLEAR     48  44  86 CALM      30.12R
LUDINGTON      PTCLDY    46  44  91 CALM      30.12R
MARSHALL       CLEAR     47  45  93 CALM      30.12S
MOUNT PLEASANT CLEAR     44  43  97 CALM      30.15S
MUSKEGON       MOCLDY    51  46  83 SE3       30.12R
SOUTH HAVEN    CLEAR     47  44  87 E3        30.10S
$$
MIZ016>042-031200-
NORTHERN LOWER MICHIGAN

CITY           SKY/WX    TMP DP  RH WIND       PRES   REMARKS
ALPENA         MOSUNNY   44  40  85 CALM      30.16R
BEAVER ISLAND  PTCLDY    52  40  65 S5        30.09R
BELLAIRE       PTCLDY    44  42  92 CALM      30.13R
CADILLAC       CLEAR     54  45  71 S6        30.13R
CHARLEVOIX     PTCLDY    52  43  72 S7        30.13S
FRANKFORT      PTCLDY    56  45  66 SE3       30.11R
GAYLORD        PTCLDY    50  45  83 SW8       30.14R
GRAYLING       CLEAR     39  37  91 CALM      30.15R
HARBOR SPRINGS PTCLDY    48  42  80 CALM      30.11S
HOUGHTON LAKE  CLEAR     52  46  80 S6        30.15S
MANISTEE       PTCLDY    48  45  87 E3        30.12R
OSCODA         SUNNY     42  40  93 CALM      30.17R
PELLSTON       PTCLDY    40  38  93 CALM      30.12R
ROGERS CITY    MOSUNNY   51  42  71 SW9       30.14R
TRAVERSE CITY  MOCLDY    51  44  77 CALM      30.11R
$$
MIZ007>008-015-031200-
EASTERN UPPER MICHIGAN

CITY           SKY/WX    TMP DP  RH WIND       PRES   REMARKS
KINROSS        MOSUNNY   45  41  87 SE3       30.10S
MACKINAC ISLAN PTCLDY    50  42  74 SE5       30.10S
NEWBERRY       PTCLDY    46  41  82 S8        30.07S
S. S. MARIE    MOSUNNY   46  39  76 E5        30.11R
MUNISING         N/A     54  39  57 S9G16     30.04R
$$
MIZ004>006-011>014-085-031200-
CENTRAL UPPER MICHIGAN

CITY           SKY/WX    TMP DP  RH WIND       PRES   REMARKS
MANISTIQUE     PTCLDY    46  39  76 S5        30.07S
ESCANABA       CLEAR     45  43  93 CALM      30.06R
MENOMINEE      CLEAR     48  43  81 S3        30.05S
SAWYER-GWINN   CLEAR     45  43  93 S10       30.03F
$$
MIZ001>003-009>011-084-031200-
WESTERN UPPER MICHIGAN

CITY           SKY/WX    TMP DP  RH WIND       PRES   REMARKS
IRON MOUNTAIN  MOCLDY    46  37  71 SE5       30.02S
HOUGHTON       MOCLDY    54  43  66 S3        29.97R
COPPER HARBOR    N/A     58  42  55 SW8       29.95S
IRONWOOD       MOCLDY    59  46  63 S8        29.92R
$$

ABBREVIATIONS USED IN REMARKS
   TC - TEMPERATURE IN CELSIUS
  WCI - WIND CHILL INDEX
   HX - HEAT INDEX
  VSB - VISIBILITY




USA.gov is the U.S. government's official web portal to all federal, state and local government web resources and services.